Weather History for KLCK - March, 2013

Change the Weather History Date:

Tuesday, March 19, 2013

  Actual Average Record
Temperature  
Mean Temperature 37 °F -  
Max Temperature 42 °F 50 °F 78 °F (2012)
Min Temperature 32 °F 31 °F 23 °F (2006)
Degree Days  
Heating Degree Days 28    
Moisture  
Dew Point 22 °F    
Average Humidity 55    
Maximum Humidity 76    
Minimum Humidity 33    
Precipitation  
Precipitation 0.00 in - - ()
Sea Level Pressure  
Sea Level Pressure 29.91 in    
Wind  
Wind Speed 18 mph (West)    
Max Wind Speed 32 mph    
Max Gust Speed 43 mph    
Visibility 10 miles    
Events      
Averages and records for this station are not official NWS values.
T = Trace of Precipitation, MM = Missing Value Source: NWS Daily Summary

Daily Weather History Graph

Daily Weather History Graph

Search for Another Location

Airport or City:

Trip Planner

Search our weather history database for the weather conditions in past years. The results will help you decide how hot, cold, wet, or windy it might be!

Date:

Astronomy

Mar. 19, 2013 Rise Set
Actual Time 7:36 AM EDT 7:42 PM EDT
Civil Twilight 7:09 AM EDT 8:09 PM EDT
Nautical Twilight 6:37 AM EDT 8:41 PM EDT
Astronomical Twilight 6:06 AM EDT 9:13 PM EDT
Moon 12:26 PM EDT (3/19) 2:28 AM EDT (3/19)
Length of Visible Light 13h 00m
Length of Day
12h 06m
Waxing Crescent, 49% of the Moon is Illuminated
Mar 19
Waxing Crescent
Mar 19
First Quarter
Mar 27
Full
Apr 3
Last Quarter
Apr 10
New

Hourly Weather History & Observations

Time (EDT) Temp. Windchill Dew Point Humidity Pressure Visibility Wind Dir Wind Speed Gust Speed Precip Events Conditions
12:15 AM 42.6 °F 34.6 °F 34.3 °F 73% 29.79 in 10.0 mi West 17.3 mph 25.3 mph N/A   Overcast
12:35 AM 42.1 °F 34.2 °F 33.6 °F 72% 29.79 in 10.0 mi West 16.1 mph 25.3 mph N/A   Overcast
12:55 AM 41.5 °F 35.0 °F 33.3 °F 72% 29.80 in 10.0 mi West 11.5 mph - N/A   Overcast
1:15 AM 41.4 °F 33.3 °F 32.9 °F 72% 29.80 in 10.0 mi West 16.1 mph 24.2 mph N/A   Overcast
1:35 AM 40.8 °F 32.6 °F 32.0 °F 71% 29.79 in 10.0 mi WSW 16.1 mph 19.6 mph N/A   Overcast
1:55 AM 40.5 °F 32.8 °F 31.8 °F 71% 29.79 in 10.0 mi WSW 13.8 mph 19.6 mph N/A   Overcast
2:15 AM 40.3 °F 32.6 °F 32.0 °F 72% 29.80 in 10.0 mi WSW 13.8 mph - N/A   Overcast
2:35 AM 40.3 °F 33.0 °F 31.6 °F 71% 29.81 in 10.0 mi WSW 12.7 mph - N/A   Overcast
2:55 AM 40.3 °F 33.4 °F 31.8 °F 72% 29.81 in 10.0 mi WSW 11.5 mph 17.3 mph N/A   Overcast
3:15 AM 40.3 °F 34.9 °F 31.8 °F 72% 29.81 in 10.0 mi SW 8.1 mph - N/A   Overcast
3:35 AM 40.1 °F 33.6 °F 31.8 °F 72% 29.81 in 10.0 mi WSW 10.4 mph - N/A   Overcast
3:55 AM 40.1 °F 33.6 °F 32.0 °F 73% 29.81 in 10.0 mi SW 10.4 mph - N/A   Overcast
4:15 AM 40.1 °F 31.3 °F 32.0 °F 73% 29.81 in 10.0 mi WSW 17.3 mph 21.9 mph N/A   Overcast
4:35 AM 39.9 °F 31.8 °F 32.0 °F 73% 29.81 in 10.0 mi SW 15.0 mph 19.6 mph N/A   Overcast
4:55 AM 39.2 °F 32.5 °F 32.0 °F 75% 29.82 in 10.0 mi SW 10.4 mph 16.1 mph N/A   Mostly Cloudy
5:15 AM 38.7 °F 30.5 °F 31.6 °F 76% 29.82 in 10.0 mi WSW 13.8 mph 20.7 mph N/A   Mostly Cloudy
5:35 AM 38.7 °F 30.9 °F 31.6 °F 76% 29.83 in 10.0 mi WSW 12.7 mph - N/A   Overcast
5:55 AM 38.7 °F 29.5 °F 31.6 °F 76% 29.83 in 10.0 mi West 17.3 mph - N/A   Overcast
6:15 AM 37.6 °F 28.8 °F 28.2 °F 69% 29.84 in 10.0 mi West 15.0 mph 23.0 mph N/A   Overcast
6:35 AM 36.5 °F 26.7 °F 26.6 °F 67% 29.85 in 10.0 mi West 17.3 mph 24.2 mph N/A   Overcast
6:55 AM 35.6 °F 27.1 °F 26.1 °F 68% 29.85 in 10.0 mi West 12.7 mph - N/A   Scattered Clouds
7:15 AM 34.9 °F 25.7 °F 26.1 °F 70% 29.85 in 10.0 mi West 13.8 mph 18.4 mph N/A   Mostly Cloudy
7:35 AM 34.5 °F 22.5 °F 25.5 °F 70% 29.86 in 10.0 mi West 23.0 mph - N/A   Scattered Clouds
7:55 AM 34.0 °F 22.1 °F 24.4 °F 68% 29.88 in 10.0 mi West 21.9 mph 26.5 mph N/A   Clear
8:15 AM 33.4 °F 22.7 °F 23.7 °F 68% 29.87 in 10.0 mi West 17.3 mph 27.6 mph N/A   Clear
8:35 AM 32.9 °F 19.6 °F 21.4 °F 63% 29.87 in 10.0 mi WSW 26.5 mph 32.2 mph N/A   Clear
8:55 AM 32.9 °F 20.7 °F 21.0 °F 62% 29.88 in 10.0 mi WSW 21.9 mph 26.5 mph N/A   Clear
9:15 AM 32.9 °F 20.7 °F 20.7 °F 61% 29.89 in 10.0 mi WSW 21.9 mph 29.9 mph N/A   Scattered Clouds
9:35 AM 33.1 °F 20.6 °F 20.5 °F 60% 29.90 in 10.0 mi WSW 23.0 mph 28.8 mph N/A   Mostly Cloudy
9:55 AM 32.0 °F 18.9 °F 20.1 °F 62% 29.91 in 10.0 mi West 24.2 mph 32.2 mph N/A   Mostly Cloudy
10:15 AM 32.0 °F 18.9 °F 19.6 °F 60% 29.91 in 10.0 mi West 24.2 mph 29.9 mph N/A   Overcast
10:35 AM 32.5 °F 20.2 °F 19.9 °F 60% 29.91 in 10.0 mi WSW 21.9 mph 28.8 mph N/A   Overcast
10:55 AM 32.7 °F 19.6 °F 20.1 °F 60% 29.92 in 10.0 mi West 25.3 mph 33.4 mph N/A   Overcast
11:15 AM 32.9 °F 21.3 °F 19.9 °F 59% 29.92 in 10.0 mi West 19.6 mph 27.6 mph N/A   Overcast
11:35 AM 33.4 °F 21.1 °F 19.4 °F 56% 29.93 in 10.0 mi West 23.0 mph 31.1 mph N/A   Mostly Cloudy
11:55 AM 34.3 °F 21.8 °F 19.6 °F 55% 29.93 in 10.0 mi West 25.3 mph - N/A   Overcast
12:15 PM 35.2 °F 22.3 °F 19.4 °F 53% 29.93 in 10.0 mi West 28.8 mph 35.7 mph N/A   Overcast
12:35 PM 35.8 °F 24.2 °F 20.1 °F 53% 29.93 in 10.0 mi West 23.0 mph 29.9 mph N/A   Overcast
12:55 PM 36.7 °F 26.6 °F 20.3 °F 52% 29.93 in 10.0 mi West 18.4 mph 25.3 mph N/A   Overcast
1:15 PM 37.9 °F 26.8 °F 20.7 °F 50% 29.93 in 10.0 mi West 24.2 mph 32.2 mph N/A   Overcast
1:35 PM 38.5 °F 28.6 °F 20.5 °F 48% 29.93 in 10.0 mi West 19.6 mph 33.4 mph N/A   Overcast
1:55 PM 39.7 °F 28.5 °F 20.1 °F 45% 29.93 in 10.0 mi West 27.6 mph 42.6 mph N/A   Overcast
2:15 PM 39.7 °F 28.8 °F 18.0 °F 42% 29.94 in 10.0 mi West 26.5 mph 34.5 mph N/A   Overcast
2:35 PM 39.4 °F 27.6 °F 17.8 °F 42% 29.93 in 10.0 mi West 29.9 mph 41.4 mph N/A   Overcast
2:55 PM 39.9 °F 29.7 °F 18.1 °F 42% 29.94 in 10.0 mi West 23.0 mph 38.0 mph N/A   Overcast
3:15 PM 40.6 °F 29.0 °F 18.0 °F 40% 29.94 in 10.0 mi West 32.2 mph 41.4 mph N/A   Overcast
3:35 PM 41.5 °F 31.0 °F 18.3 °F 39% 29.94 in 10.0 mi West 27.6 mph 35.7 mph N/A   Overcast
3:55 PM 41.2 °F 29.7 °F 17.4 °F 38% 29.95 in 10.0 mi West 32.2 mph 42.6 mph N/A   Overcast
4:15 PM 41.9 °F 31.1 °F 16.7 °F 36% 29.95 in 10.0 mi West 29.9 mph 39.1 mph N/A   Mostly Cloudy
4:35 PM 42.4 °F 31.4 °F 16.3 °F 35% 29.96 in 10.0 mi West 32.2 mph 39.1 mph N/A   Scattered Clouds
4:55 PM 42.1 °F 31.1 °F 15.4 °F 34% 29.96 in 10.0 mi West 31.1 mph 36.8 mph N/A   Scattered Clouds
5:15 PM 41.9 °F 30.9 °F 15.4 °F 34% 29.97 in 10.0 mi West 31.1 mph 41.4 mph N/A   Scattered Clouds
5:35 PM 42.4 °F 32.0 °F 16.7 °F 35% 29.97 in 10.0 mi West 28.8 mph 38.0 mph N/A   Scattered Clouds
5:55 PM 42.1 °F 31.9 °F 14.9 °F 33% 29.98 in 10.0 mi West 26.5 mph 34.5 mph N/A   Scattered Clouds
6:15 PM 41.9 °F 32.6 °F 14.2 °F 33% 29.98 in 10.0 mi West 21.9 mph 38.0 mph N/A   Scattered Clouds
6:35 PM 41.7 °F 32.1 °F 15.3 °F 34% 29.98 in 10.0 mi West 23.0 mph 29.9 mph N/A   Clear
6:55 PM 41.2 °F 32.1 °F 13.6 °F 33% 29.99 in 10.0 mi West 19.6 mph 34.5 mph N/A   Clear
7:15 PM 40.5 °F 31.8 °F 13.5 °F 33% 29.99 in 10.0 mi WNW 17.3 mph 32.2 mph N/A   Clear
7:35 PM 39.6 °F 30.0 °F 12.4 °F 33% 30.00 in 10.0 mi West 19.6 mph 29.9 mph N/A   Clear
7:55 PM 38.7 °F 29.8 °F 12.9 °F 35% 30.01 in 10.0 mi West 16.1 mph 21.9 mph N/A   Clear
8:15 PM 37.9 °F 29.2 °F 14.4 °F 38% 30.01 in 10.0 mi West 15.0 mph - N/A   Clear
8:35 PM 37.6 °F 29.6 °F 14.2 °F 38% 30.01 in 10.0 mi West 12.7 mph - N/A   Clear
8:55 PM 37.0 °F 29.8 °F 14.5 °F 40% 30.02 in 10.0 mi West 10.4 mph - N/A   Clear
9:15 PM 36.5 °F 28.2 °F 15.3 °F 42% 30.03 in 10.0 mi West 12.7 mph 18.4 mph N/A   Clear
9:35 PM 36.1 °F 27.3 °F 15.6 °F 43% 30.03 in 10.0 mi West 13.8 mph - N/A   Clear
9:55 PM 36.0 °F 28.0 °F 15.6 °F 44% 30.03 in 10.0 mi West 11.5 mph - N/A   Clear
10:15 PM 35.6 °F 26.2 °F 16.0 °F 45% 30.03 in 10.0 mi West 15.0 mph 18.4 mph N/A   Clear
10:35 PM 35.4 °F 27.3 °F 16.2 °F 46% 30.04 in 10.0 mi West 11.5 mph - N/A   Clear
10:55 PM 34.5 °F 25.3 °F 17.1 °F 49% 30.03 in 10.0 mi West 13.8 mph - N/A   Clear
11:15 PM 34.9 °F 26.2 °F 16.7 °F 48% 30.03 in 10.0 mi West 12.7 mph 17.3 mph N/A   Clear
11:35 PM 35.1 °F 25.2 °F 16.2 °F 46% 30.03 in 10.0 mi West 16.1 mph 20.7 mph N/A   Clear
11:55 PM 35.2 °F 26.2 °F 16.2 °F 46% 30.03 in 10.0 mi West 13.8 mph - N/A   Clear